默认 日期 大小 文件数 浏览量 最新下载 xml
split‌磁力链接相关资源由用户搜索指令自动获取,结果来源于网络,本站不存储任何资料,亦不承担任何责任,请于24小时内删除,搜索到47119个磁力,显示前4000条数据,用时6ms。
    {"dahlia sky.mp4": 503715179, "karla kush.mp4": 486533551, "lucia lace.mp4": 315214328, "jodi taylor.mp4": 343218538, "karmen karma.mp4": 389799767, "keira nicole.mp4": 387161644, "penny brooks.mp4": 282391803, "cherie deville.mp4": 303565961, "nikki ...
创建时间: 2018-10-31 00:16:51 大小:3.53 GB 文件数量:10 热度:41 最近下载:2025-02-05 14:42:04
    {"Lela Star.mp4": 347884596, "Stella Cox.mp4": 367730320, "Ashley Adams.mp4": 290212750, "Kristen Scott.mp4": 294480072, "Phoenix Marie.mp4": 307351233, "Angela White, Ava Addams, Bridgette B.mp4": 475774430}
创建时间: 2018-10-31 00:17:02 大小:1.94 GB 文件数量:6 热度:74 最近下载:2025-08-03 19:59:01
    ... ColdFilm.mkv": 1595846550, "The.Split.S01E02.720p.ColdFilm.mkv": ... 1607500006, "The.Split.S01E03.720p.ColdFilm.mkv": ... 1598399196, "The.Split.S01E04.720p.ColdFilm.mkv": ... ColdFilm.mkv": 1605985865, "The.Split.S01E06.720p.ColdFilm.mkv": 1645046417 ...
创建时间: 2018-10-31 00:20:46 大小:8.99 GB 文件数量:6 热度:14 最近下载:2024-04-07 07:56:04
    {"Panochitas_8_Scene_1.mp4": 182732955, "Panochitas_8_Scene_3.mp4": 184084492, "Panochitas_8_Scene_4.mp4": 186339444, "Panochitas_8_Scene_5.mp4": 231462002, "Panochitas_8_Scene_6.mp4": 231508984, "Torrent downloaded from PublicHash.com.txt": 151}
创建时间: 2018-10-31 00:21:01 大小:969.06 MB 文件数量:6 热度:9 最近下载:2023-03-31 06:10:01
    {"allie haze.mp4": 323526085, "tasha reign.mp4": 292677828, "sandee westgate.mp4": 346605495}
创建时间: 2018-10-31 00:22:36 大小:918.21 MB 文件数量:3 热度:197 最近下载:2025-08-21 07:16:02
    {"scene2_bibi.mp4": 774185638, "scene1_angel1.mp4": 472009997, "scene1_angel2.mp4": 463491015, "Torrent Downloads piratepublic.com.txt": 225}
创建时间: 2018-10-31 00:23:54 大小:1.59 GB 文件数量:4 热度:36 最近下载:2025-05-10 21:30:02
    {"07. KhoMha - Fuego.mp3": 6160384, "23. Enzo - Magenta.mp3": 8343552, "24. OneBeat - Kinetic.mp3": 11124736, "04. Arggic - Dreamyness.mp3": 7696384, "20. Sunny Lax - So Long.mp3": 11329536, "30. Cold Blue - A New Spirit.mp3": 6555648, "01. A State Of ...
创建时间: 2018-10-31 00:25:59 大小:283.4 MB 文件数量:37 热度:20 最近下载:2025-02-16 02:54:01
    {"Alice March.mp4": 878931969, "August Ames.mp4": 877374163, "Ariana Marie.mp4": 697399565, "Abella Danger.mp4": 884178816, "Kendall Kayden.mp4": 948704468}
创建时间: 2018-10-31 00:26:23 大小:3.99 GB 文件数量:5 热度:27 最近下载:2025-08-01 09:22:07
    {"25183_01_hd.mp4": 427316166, "25183_02_hd.mp4": 438428266, "25183_03_hd.mp4": 449631641, "25183_04_hd.mp4": 411993826, "25183_05_hd.mp4": 473946172, "25183_06_hd.mp4": 407391163, "25183_07_hd.mp4": 253214953, "25183_08_hd.mp4": 303660747, "25183_09_hd. ...
创建时间: 2018-10-31 00:26:57 大小:4.61 GB 文件数量:13 热度:48 最近下载:2025-04-30 23:12:03
    {"Ana Foxxx.mp4": 584674098, "Jenna Foxx.mp4": 715978987, "Miya Lushes.mp4": 421538264, "Camille Amore.mp4": 550577032, "Skyler Nicole.mp4": 695885586}
创建时间: 2018-10-31 00:27:40 大小:2.76 GB 文件数量:5 热度:47 最近下载:2025-10-14 23:39:02
    {"RARBG.com.txt": 53, "Scene 3 Ela Darling.mp4": 359163207, "Scene 1 Anikka Albrite.mp4": 238636698, "Scene 4 Anikka Albrite.mp4": 168359920, "Scene 5 Brooklyn Chase.mp4": 175354275, "Scene 2 Kleio Valentien.mp4": 219589278}
创建时间: 2018-10-31 00:33:26 大小:1.08 GB 文件数量:6 热度:66 最近下载:2025-09-19 22:15:03
    {"3427074088-1.jpeg": 41633, "03 Buh Buh Bubbaram.mp3": 5480832, "04 Free Slurpee Day.mp3": 7869656, "01 At The End of the Day.mp3": 4498645, "02 Our Hearts Remain the Same.mp3": 2488567}
创建时间: 2018-10-31 00:39:12 大小:19.44 MB 文件数量:5 热度:24 最近下载:2025-08-04 22:44:09
    {"Lena Paul.mp4": 432167181, "Lily LaBeau.mp4": 433955394, "Skyla Novea.mp4": 475252054, "Angela White,Kissa Sins .mp4": 553555548}
创建时间: 2018-10-31 00:40:52 大小:1.76 GB 文件数量:4 热度:38 最近下载:2025-10-07 16:53:03
    {"Ariadna.mp4": 1043980482, "Lullu Gun.mp4": 829907763, "Kitana Lure.mp4": 839173512, "Kristy Black.mp4": 935861178, "Valentina Bianco.mp4": 728559685}
创建时间: 2018-10-31 00:43:14 大小:4.08 GB 文件数量:5 热度:142 最近下载:2025-10-06 21:32:03
    {"Marica Hase.mp4": 222791827, "Lexi Belle, Penny Pax.mp4": 228855080, "Chanel Preston, Lea Lexis.mp4": 260519312, "Adriana Chechik, Karla Kush.mp4": 287251316, "AJ Applegate, Ashlyn Molloy, Penny Pax, Sarah Shevon.mp4": 278237771}
创建时间: 2018-10-31 00:46:04 大小:1.19 GB 文件数量:5 热度:26 最近下载:2025-01-28 17:31:02
    {"49733_01_hd.mp4": 351251359, "49733_02_hd.mp4": 443761654, "49733_03_hd.mp4": 412204940, "49733_04_hd.mp4": 427243064, "49733_05_hd.mp4": 393222728, "49733_06_hd.mp4": 436254903, "49733_07_hd.mp4": 630386963, "49733_08_hd.mp4": 501721252, "49733_09_hd. ...
创建时间: 2018-10-31 00:46:30 大小:4.08 GB 文件数量:14 热度:32 最近下载:2025-08-04 14:47:04
    {"Naomi Woods.mp4": 677453918, "Hannah Reese.mp4": 649083291, "Kimmy Granger.mp4": 292218383, "Miranda Miller.mp4": 276114464, "Halle Von, Marry Lynn.mp4": 402399155}
创建时间: 2018-10-31 00:47:09 大小:2.14 GB 文件数量:5 热度:32 最近下载:2025-02-11 21:45:03
    {"Alix Lynx.mp4": 438604774, "RARBG.com.nfo": 63, "Stella Cox.mp4": 510904351, "Jaye Summers.mp4": 335723234, "Rosyln Belle.mp4": 373892019, "Dillion Harper.mp4": 436279115, "Ivana Sugar, Tina Kay.mp4": 486383465}
创建时间: 2018-10-31 00:56:28 大小:2.4 GB 文件数量:7 热度:45 最近下载:2025-07-24 04:44:01
    {"Tease Me Then Please Me 4": {"Tease_Me_Then_Please_Me_4_Scene_1_fh.mp4": 293758173, "Tease_Me_Then_Please_Me_4_Scene_2_fh.mp4": 274221482, "Tease_Me_Then_Please_Me_4_Scene_3_fh.mp4": 345969444, "Tease_Me_Then_Please_Me_4_Scene_4_fh.mp4": 258985223, " ...
创建时间: 2018-10-31 00:56:47 大小:1.39 GB 文件数量:5 热度:48 最近下载:2025-07-31 21:29:01
    {"Eva Lovia.mp4": 442062251, "Lana Rhoades.mp4": 331120284, "Abella Danger.mp4": 411736012, "Kitty Caprice.mp4": 302492983, "Cristi Ann, Lexi Luna.mp4": 387400077, "Torrent Downloaded From ExtraTorrent.cc.nfo": 338}
创建时间: 2018-10-31 01:01:43 大小:1.75 GB 文件数量:6 热度:41 最近下载:2025-04-06 05:40:02